Accueil
METAR-TAF:

METAR-TAF

Aéroports :

Irene, Afrique du Sud

latitude: 25-54-36S, longitude: 28-12-40E, altitude: 1523 m

Observation

Le bulletin a été fait il y a 5 heures et 14 minutes, à 07:43 UTC
Vent 2 kt de nord-est
Température 16°C
Humidité 42%
Pression 1032 hPa
Visibilité: 9000 m

METAR: FAIR 140743Z 05002KT 9000 NSC 16/03 Q1032

Heure: 14:57 (12:57 UTC)


TAF: absent

Observations et prévisions météorologiques de plus de 4000 aéroports (messages METAR et TAF).

Les stations disponibles sont représentées par des disques jaunes et rouges sur la carte.

Passer la souris dessus pour voir le nom de la station.

Cliquer dessus pour voir les observations et prévisions météorologiques.

Pour changer de carte: cliquez sur les boutons verts avec une croix noire pour zoomer, sur le bouton vert avec un tiret pour effectuer un zoom arrière, ou sur les flèches vertes pour les cartes adjacentes.


METAR-TAF: